Logan, UT

7:01 PM MST on November 16, 2019 (GMT -0700)
Logan-Cache

Weather History for KLGU - August, 2019

Change the Weather History Date:

Friday, August 9, 2019

  Actual Average Record
Temperature  
Mean Temperature 69 °F -  
Max Temperature 86 °F 89 °F 100 °F (1990)
Min Temperature 54 °F 54 °F 37 °F (2002)
Cooling Degree Days 4    
Growing Degree Days 19 (Base 50)    
Moisture  
Dew Point 51 °F    
Average Humidity 58    
Maximum Humidity 93    
Minimum Humidity 23    
Precipitation  
Precipitation 0.00 in - - ()
Sea Level Pressure  
Sea Level Pressure 29.92 in    
Wind  
Wind Speed 4 mph (South)    
Max Wind Speed 10 mph    
Max Gust Speed -    
Visibility 10 miles    
Events      
Averages and records for this station are not official NWS values.
T = Trace of Precipitation, MM = Missing Value Source: NWS Daily Summary

Daily Weather History Graph

Daily Weather History Graph

Search for Another Location

Airport or City:

Astronomy

Aug. 09, 2019 Rise Set
Actual Time 6:29 AM MDT 8:35 PM MDT
Civil Twilight 5:58 AM MDT 9:06 PM MDT
Nautical Twilight 5:21 AM MDT 9:43 PM MDT
Astronomical Twilight 4:40 AM MDT 10:24 PM MDT
Moon 4:21 PM MDT (8/9) 1:28 AM MDT (8/9)
Length of Visible Light 15h 07m
Length of Day
14h 06m
Waxing Gibbous, 71% of the Moon is Illuminated
Aug 9
Waxing Gibbous
Aug 15
Full
Aug 23
Last Quarter
Aug 30
New
Sep 5
First Quarter

Hourly Weather History & Observations

Time (MDT) Temp. Dew Point Humidity Pressure Visibility Wind Dir Wind Speed Gust Speed Precip Events Conditions
12:51 AM 64.0 °F 55.0 °F 73% 29.96 in 10.0 mi ESE 4.6 mph - N/A   Clear
1:51 AM 61.0 °F 55.0 °F 81% 29.98 in 10.0 mi SW 5.8 mph - N/A   Clear
2:51 AM 57.9 °F 54.0 °F 87% 29.98 in 10.0 mi ENE 3.5 mph - N/A   Partly Cloudy
3:51 AM 57.9 °F 54.0 °F 87% 29.97 in 10.0 mi Calm Calm - N/A   Clear
4:51 AM 57.0 °F 54.0 °F 89% 29.97 in 10.0 mi Calm Calm - N/A   Clear
5:51 AM 54.0 °F 52.0 °F 93% 29.97 in 10.0 mi Calm Calm - N/A   Clear
6:51 AM 54.0 °F 51.1 °F 90% 29.99 in 10.0 mi East 4.6 mph - N/A   Clear
7:51 AM 57.9 °F 55.0 °F 90% 29.99 in 10.0 mi Calm Calm - N/A   Clear
8:51 AM 63.0 °F 54.0 °F 72% 29.99 in 10.0 mi NE 3.5 mph - N/A   Clear
9:51 AM 68.0 °F 55.0 °F 63% 29.97 in 10.0 mi Variable 3.5 mph - N/A   Clear
10:51 AM 72.0 °F 55.0 °F 55% 29.96 in 10.0 mi NNE 5.8 mph - N/A   Clear
11:51 AM 75.0 °F 53.1 °F 46% 29.96 in 10.0 mi NNW 4.6 mph - N/A   Clear
12:51 PM 78.1 °F 52.0 °F 40% 29.93 in 10.0 mi Calm Calm - N/A   Clear
1:51 PM 80.1 °F 51.1 °F 36% 29.91 in 10.0 mi Variable 3.5 mph - N/A   Clear
2:51 PM 82.9 °F 48.0 °F 29% 29.90 in 10.0 mi South 9.2 mph - N/A   Clear
3:51 PM 84.9 °F 48.0 °F 28% 29.87 in 10.0 mi SW 8.1 mph - N/A   Clear
4:51 PM 84.9 °F 46.0 °F 26% 29.86 in 10.0 mi SSW 10.4 mph - N/A   Clear
5:51 PM 84.9 °F 45.0 °F 25% 29.86 in 10.0 mi WSW 8.1 mph - N/A   Clear
6:51 PM 84.9 °F 43.0 °F 23% 29.84 in 10.0 mi SSW 3.5 mph - N/A   Clear
7:51 PM 82.9 °F 43.0 °F 24% 29.81 in 10.0 mi SSE 3.5 mph - N/A   Clear
8:51 PM 75.0 °F 53.1 °F 46% 29.82 in 10.0 mi Calm Calm - N/A   Clear
9:51 PM 72.0 °F 52.0 °F 49% 29.83 in 10.0 mi SSW 6.9 mph - N/A   Clear
10:51 PM 64.9 °F 53.1 °F 65% 29.83 in 10.0 mi Calm Calm - N/A   Clear
11:51 PM 64.0 °F 51.1 °F 63% 29.82 in 10.0 mi Variable 4.6 mph - N/A   Clear